Waukegan, IL

11:43 AM CDT on March 27, 2017 (GMT -0500)
Waukegan Regional

Weather History for KUGN - January, 2014

Change the Weather History Date:

Friday, January 3, 2014

  Actual Average Record
Temperature  
Mean Temperature 5 °F -  
Max Temperature 19 °F 32 °F 52 °F (2004)
Min Temperature -9 °F 17 °F -9 °F (2014)
Degree Days  
Heating Degree Days 60 41  
Month to date heating degree days 166 122  
Since 1 July heating degree days 3054 2671  
Cooling Degree Days 0 0  
Month to date cooling degree days 0 0  
Year to date cooling degree days 0 0  
Moisture  
Dew Point 2 °F    
Average Humidity 77    
Maximum Humidity 92    
Minimum Humidity 61    
Precipitation  
Precipitation 0.00 in 0.05 in 0.52 in (2015)
Month to date precipitation 0.00 0.14  
Year to date precipitation 0.00 0.14  
Sea Level Pressure  
Sea Level Pressure 30.14 in    
Wind  
Wind Speed 14 mph (SSW)    
Max Wind Speed 33 mph    
Max Gust Speed 41 mph    
Visibility 7 miles    
Events Snow    
T = Trace of Precipitation, MM = Missing Value Source: NWS Daily Summary

Daily Weather History Graph

Daily Weather History Graph

Search for Another Location

Airport or City:

Trip Planner

Search our weather history database for the weather conditions in past years. The results will help you decide how hot, cold, wet, or windy it might be!

Date:

Astronomy

Jan. 03, 2014 Rise Set
Actual Time 7:21 AM CST 4:31 PM CST
Civil Twilight 6:49 AM CST 5:03 PM CST
Nautical Twilight 6:13 AM CST 5:38 PM CST
Astronomical Twilight 5:39 AM CST 6:12 PM CST
Moon 8:43 AM CST (1/3) 7:44 PM CST (1/3)
Length of Visible Light 10h 13m
Length of Day
9h 10m
Waxing Crescent, 8% of the Moon is Illuminated
Jan 3
Waxing Crescent
Jan 7
First Quarter
Jan 15
Full
Jan 23
Last Quarter
Jan 30
New

Hourly Weather History & Observations

Time (CST) Temp. Windchill Dew Point Humidity Pressure Visibility Wind Dir Wind Speed Gust Speed Precip Events Conditions
12:52 AM -0.9 °F -14.1 °F -9.0 °F 69% - 10.0 mi WNW 6.9 mph - N/A   Clear
1:52 AM -2.9 °F -13.3 °F -9.0 °F 75% - 10.0 mi West 4.6 mph - N/A   Clear
2:52 AM -4.0 °F -12.4 °F -9.9 °F 76% - 10.0 mi NW 3.5 mph - N/A   Clear
3:52 AM -5.1 °F -13.6 °F -9.9 °F 80% - 10.0 mi West 3.5 mph - N/A   Clear
4:52 AM -6.0 °F -16.9 °F -9.9 °F 83% - 10.0 mi West 4.6 mph - N/A   Clear
5:52 AM -7.1 °F -15.9 °F -11.0 °F 83% - 10.0 mi West 3.5 mph - N/A   Partly Cloudy
6:52 AM -8.0 °F -19.2 °F -11.9 °F 83% - 10.0 mi WSW 4.6 mph - N/A   Clear
7:52 AM -9.0 °F - -11.9 °F 87% 30.48 in 7.0 mi Calm Calm - N/A   Clear
8:52 AM -2.9 °F -15.0 °F -8.0 °F 79% 30.46 in 10.0 mi SSW 5.8 mph - N/A   Clear
9:52 AM 5.0 °F -10.8 °F -5.1 °F 63% 30.45 in 10.0 mi SW 11.5 mph - N/A   Clear
10:52 AM 9.0 °F -5.1 °F -2.0 °F 61% 30.42 in 10.0 mi SSW 10.4 mph - N/A   Overcast
11:52 AM 10.9 °F -7.0 °F 1.0 °F 64% 30.38 in 10.0 mi South 18.4 mph - N/A   Mostly Cloudy
12:52 PM 12.0 °F -5.1 °F 1.0 °F 61% 30.32 in 10.0 mi South 17.3 mph 24.2 mph N/A   Mostly Cloudy
1:52 PM 12.9 °F -3.4 °F 3.0 °F 65% 30.27 in 10.0 mi South 16.1 mph 25.3 mph N/A   Scattered Clouds
2:52 PM 14.0 °F -3.0 °F 5.0 °F 67% 30.23 in 10.0 mi South 18.4 mph 25.3 mph N/A   Mostly Cloudy
3:52 PM 15.1 °F -2.5 °F 7.0 °F 70% 30.19 in 7.0 mi South 20.7 mph - N/A   Mostly Cloudy
4:52 PM 15.1 °F -2.9 °F 7.0 °F 70% 30.17 in 6.0 mi South 21.9 mph 28.8 mph N/A   Haze
5:52 PM 15.1 °F -2.0 °F 7.0 °F 70% 30.12 in 4.0 mi South 19.6 mph 35.7 mph N/A   Haze
6:52 PM 15.1 °F -3.7 °F 7.0 °F 70% 30.09 in 4.0 mi South 24.2 mph 31.1 mph N/A   Haze
7:52 PM 16.0 °F -2.5 °F 9.0 °F 74% 30.06 in 3.0 mi South 24.2 mph 39.1 mph 0.00 in   Haze
8:32 PM 17.6 °F -0.6 °F 10.4 °F 73% 29.93 in 2.5 mi South 25.3 mph 36.8 mph N/A   Haze
8:52 PM 17.1 °F -3.8 °F 10.0 °F 74% 30.00 in 2.0 mi South 34.5 mph 40.3 mph N/A Snow Blowing Snow
8:59 PM 17.6 °F -1.0 °F 10.4 °F 73% 29.91 in 2.0 mi South 26.5 mph 41.4 mph N/A   Haze
9:11 PM 17.6 °F 0.1 °F 10.4 °F 73% 29.91 in 3.0 mi South 23.0 mph 34.5 mph N/A   Haze
9:21 PM 17.6 °F -0.3 °F 10.4 °F 73% 29.90 in 3.0 mi South 24.2 mph 39.1 mph 0.00 in   Haze
9:52 PM 18.0 °F -0.8 °F 10.9 °F 74% 29.96 in 3.0 mi South 27.6 mph 36.8 mph 0.00 in   Haze
10:52 PM 19.0 °F 2.7 °F 10.9 °F 71% 29.95 in 5.0 mi SSW 20.7 mph 33.4 mph N/A   Haze
11:11 PM 19.4 °F 1.8 °F 12.2 °F 74% 29.88 in 3.0 mi SSW 25.3 mph 39.1 mph 0.00 in   Partly Cloudy
11:52 PM 19.0 °F 2.4 °F 10.9 °F 71% 29.93 in 7.0 mi South 21.9 mph 31.1 mph 0.00 in   Clear